Back to catalog

STARLINK-6293

AliveCommunicationsVLEO
NORAD 57354·PAYLOAD·🇺🇸 United States

Launched Jul 16, 2023 from Cape Canaveral Space Force Station

Loading…

Next Passes (next 24 hours)

TLE

FreshSource: CelesTrak SupGP

Epoch: Sep 14, 2026, 20:41 UTC

1 57354C 23099AC  26257.86229167  .00022657  00000+0  82123-3 0  2577
2 57354  42.9990 253.3811 0001113 251.6323 344.6853 15.27543718    17

Track STARLINK-6293 in real time with AllMySat

Download on the App Store